SCOUT X-4 DEB, 2986

Orbit data source: Space-Track

SCOUT X-4 DEB, 2986 is space debris in LEO originally from a launch on Thu, 04 Jun 1964 UTC launched from the Air Force Western Test Range (AFWTR). Debris objects in space refer to the collection of defunct objects orbiting the Earth. Examples of debris include non-operational satellites, rocket bodies, and fragments generated from explosions, collisions, or faulty payload assembly.

Loading next visibility...
Identifier
2986, 1964-026E
Orbit
LEO
Country
Flag of USUS
Related business
Manufacturer
Unknown
Mission
Spacecraft
Bus & Motor
Unknown
Mass
Unknown
Launch date (UTC)
1964-06-04 (61 years ago)
Launch vehicle
Unknown
Launch site
Air Force Western Test Range (AFWTR)
Object type
Payload
Rocket body
Debris
Shape & HBR
Unknown shape, 0.1 m
Radar Cross Section
Small (<0.1 m²)

Expand to show TLE details & history
Last TLE update: 12 hours ago

TLE from 12 hours ago
0 SCOUT X-4 DEB
1  2986U 64026E   25299.17086315  .00000382  00000-0  22423-3 0  9990
2  2986  90.4755 179.9964 0044336 249.0651 110.5783 14.06414657141570
Epoch: 2025-10-26T04:06Z
TLE epoch observation values (Epoch: 2025-10-26T04:06:02.576Z)
Latitude
-0.00007°
Longitude
83.69477°
Altitude
886.126 km
Speed
7.403 km/s
True Right ascension
11h 59m 59s
True Declination
0° 00' 00"
Sunlit
Object was in daylight at epoch
Visualization orbit readout
Latitude
Unknown
Longitude
Unknown
Altitude
Unknown
Speed
Unknown
Apparent Right ascension
Unknown
Apparent Declination
Unknown
Sunlit
N/A
Visualization observer readout
Local Sidereal Time
11:00:08
Azimuth
Unknown
Elevation
Unknown
Doppler factor
Unknown
Orbital elements
Apogee altitude
900.765 km
Perigee altitude
836.506 km
Semi-major axis
7,246.772 km
Eccentricity
0.00443
Inclination
90.4755°
RAAN
179.9964°
Arg. of periapsis
249.0651°
True anomaly
111.05301°
Mean anomaly
110.5783°
Eccentric anomaly
110.81575°
Mean motion
3.51825 °/min
Orbital period
102.32 mins
BSTAR
0.00022423
Loading maneuver chart data...
Computing Atmospheric mass density...
Loading historical data...
Loading historical data...
Loading historical data...
Loading historical data...
Loading historical data...
Loading historical data...
Loading historical data...

Documentation

Showing up to 5 results
|